CW9002 Weather Reports


Display with metric or nautical units.
time (UTC)temp
F
wind
direction
speed
MPH
gust
MPH
rain 1hr
in
rain 24hr
in
rain mn
in
humidity
%
barometer
mb
20260504043706 48 194 2.0 9.0 0.00 0.00 0.00 53 1028.7
20260504043205 48 217 1.0 9.0 0.00 0.00 0.00 54 1028.7
20260504040705 48 184 4.0 12.0 0.00 0.00 0.00 54 1028.8
20260504040205 48 180 2.0 7.0 0.00 0.00 0.00 55 1028.8
20260504033206 47 19 1.0 3.0 0.00 0.00 0.00 56 1028.8
20260504030706 47 17 1.0 3.0 0.00 0.00 0.00 57 1029.0
20260504030206 47 17 1.0 3.0 0.00 0.00 0.00 57 1029.1
20260504023206 46 16 2.0 5.0 0.00 0.00 0.00 58 1029.2
20260504020705 46 16 1.0 2.0 0.00 0.00 0.00 61 1029.2
20260504020206 46 15 1.0 3.0 0.00 0.00 0.00 61 1029.1
20260504013707 46 17 1.0 3.0 0.00 0.00 0.00 61 1029.1
20260504013205 46 17 2.0 3.0 0.00 0.00 0.00 60 1029.1
20260504010706 46 16 1.0 2.0 0.00 0.00 0.00 62 1029.0
20260504010206 46 16 1.0 2.0 0.00 0.00 0.00 63 1029.1
20260504003706 48 15 1.0 2.0 0.00 0.00 0.00 61 1028.9
20260504003208 48 15 1.0 2.0 0.00 0.00 0.00 59 1029.0
20260504000705 50 15 0.0 3.0 0.00 0.00 0.00 56 1028.9
20260504000205 51 15 2.0 3.0 0.00 0.00 0.00 51 1028.9
20260503233705 51 16 3.0 7.0 0.00 0.00 0.00 50 1028.9
20260503233206 52 16 1.0 5.0 0.00 0.00 0.00 49 1029.0
20260503230707 52 19 2.0 10.0 0.00 0.00 0.00 49 1029.0
20260503230205 53 17 5.0 10.0 0.00 0.00 0.00 48 1029.1
20260503223205 54 15 5.0 13.0 0.00 0.00 0.00 45 1029.2
20260503220706 54 15 3.0 12.0 0.00 0.00 0.00 46 1029.3
20260503220205 53 15 5.0 12.0 0.00 0.00 0.00 45 1029.2
20260503213205 55 15 2.0 10.0 0.00 0.00 0.00 47 1029.2
20260503210706 53 18 4.0 10.0 0.00 0.00 0.00 48 1029.4
20260503210205 53 17 5.0 12.0 0.00 0.00 0.00 46 1029.5
20260503203705 54 16 3.0 13.0 0.00 0.00 0.00 47 1029.8
20260503200706 54 12 3.0 16.0 0.00 0.00 0.00 45 1029.9
20260503200205 54 18 5.0 16.0 0.00 0.00 0.00 45 1029.9
20260503193705 54 15 3.0 10.0 0.00 0.00 0.00 46 1030.2
20260503193205 53 16 4.0 14.0 0.00 0.00 0.00 47 1030.2
20260503190206 52 17 6.0 12.0 0.00 0.00 0.00 46 1030.8
20260503183705 53 12 5.0 16.0 0.00 0.00 0.00 47 1031.0
20260503183205 53 15 6.0 13.0 0.00 0.00 0.00 46 1031.2
20260503180705 52 20 5.0 14.0 0.00 0.00 0.00 46 1031.2
20260503180206 52 16 5.0 14.0 0.00 0.00 0.00 47 1031.3
20260503173705 50 16 3.0 16.0 0.00 0.00 0.00 49 1031.4
20260503173205 50 17 7.0 12.0 0.00 0.00 0.00 46 1031.5
20260503170705 51 16 4.0 13.0 0.00 0.00 0.00 50 1031.8
20260503170205 50 15 5.0 12.0 0.00 0.00 0.00 48 1031.8
20260503160205 47 17 4.0 16.0 0.00 0.00 0.00 55 1032.2
20260503150706 45 16 5.0 13.0 0.00 0.00 0.00 55 1032.5
20260503150206 45 16 4.0 8.0 0.00 0.00 0.00 57 1032.5
20260503140205 43 223 5.0 12.0 0.00 0.00 0.00 67 1032.7
20260503130705 40 258 1.0 7.0 0.00 0.00 0.00 74 1032.6
20260503130205 39 251 2.0 8.0 0.00 0.00 0.00 74 1032.5
20260503120205 34 209 3.0 6.0 0.00 0.00 0.00 87 1032.3
20260503110705 31 22 0.0 3.0 0.00 0.00 0.00 91 1031.8
20260503110205 31 20 1.0 3.0 0.00 0.00 0.00 91 1031.8
20260503100205 30 30 1.0 3.0 0.00 0.00 0.00 91 1030.8
20260503090205 31 275 0.0 1.0 0.00 0.00 0.00 90 1030.6
20260503080705 31 279 0.0 1.0 0.00 0.00 0.00 90 1030.3
20260503080205 31 279 0.0 1.0 0.00 0.00 0.00 89 1030.4
20260503070705 31 279 1.0 1.0 0.00 0.00 0.00 87 1030.0
20260503070205 31 279 0.0 2.0 0.00 0.00 0.00 86 1030.0
20260503060205 34 280 0.0 1.0 0.00 0.00 0.00 82 1030.0
20260503050705 35 261 0.0 3.0 0.00 0.00 0.00 81 1030.2
20260503050205 35 267 1.0 2.0 0.00 0.00 0.00 81 1030.2